DECAYED

STARLINK-1789, 46690 (Decayed)

Orbit data source: Space-Track

STARLINK-1789, 46690 was a payload satellite owned by SpaceX/Seattle (US) in LEO that was launched on Sun, 18 Oct 2020 UTC via an FALCON 9 launch vehicle from the Air Force Eastern Test Range (AFETR). Payload-class satellites include a variety of spacecraft equipped with specific instruments for various scientific and technological missions. These include communications satellites like Starlink; space stations such as the ISS; scientific satellites like the Hubble; Earth observation satellites from companies like Planet Labs, Umbra, and HawkEye 360; GPS; miniature CubeSats for education and research; and military/defense satellites.

Not visible in the next 10 days
Identifier
46690, 2020-073W
Orbit
Decayed
Country
Flag of USUS
Related business
Manufacturer
SpaceX/Seattle
Mission
Decayed Commercial Communications
Bus & Motor
STARLINK, Unknown motor
Mass
260 kg wet, ~248 kg dry
Launch date (UTC)
2020-10-18 (6 years ago)
Launch vehicle
FALCON 9
Launch site
Air Force Eastern Test Range (AFETR)
Object type
Payload
Rocket body
Debris
Shape & HBR
Box + 1 Pan, 10.1 m
Radar Cross Section
13.562 m², Large (>1 m²)

Expand to show TLE details & history
Last TLE update: 2 months ago

TLE from 2 months ago
0 STARLINK-1789
1 46690U 20073W   26055.63381735  .12336842  12505-4  43071-3 0  9995
2 46690  53.0221 228.2787 0007305 285.0706  74.9533 16.43974320296163
Epoch: 2026-02-24T15:12Z
TLE epoch observation values (Epoch: 2026-02-24T15:12:41.819Z)
Latitude
-0.00003°
Longitude
-154.4061°
Altitude
154.944 km
Speed
7.815 km/s
True Right ascension
15h 13m 06s
True Declination
0° 00' 00"
Sunlit
Object was in full shadow at epoch
Visualization orbit readout
Latitude
Unknown
Longitude
Unknown
Altitude
Unknown
Speed
Unknown
Apparent Right ascension
Unknown
Apparent Declination
Unknown
Sunlit
N/A
Visualization observer readout
Local Sidereal Time
02:12:55
Azimuth
Unknown
Elevation
Unknown
Doppler factor
Unknown
Orbital elements
Apogee altitude
160.316 km
Perigee altitude
150.771 km
Semi-major axis
6,533.681 km
Eccentricity
0.00073
Inclination
53.0221°
RAAN
228.2787°
Arg. of periapsis
285.0706°
True anomaly
75.03416°
Mean anomaly
74.9533°
Eccentric anomaly
74.99373°
Mean motion
4.10966 °/min
Orbital period
87.6 mins
BSTAR
0.00043071
Loading maneuver chart data...
Computing Atmospheric mass density...

Documentation

Showing up to 5 results
|